CW3007 Weather Reports


Display with metric or nautical units.
time (UTC)temp
F
wind
direction
speed
MPH
gust
MPH
rain 1hr
in
rain 24hr
in
rain mn
in
humidity
%
barometer
mb
20260507124628 59 340 5.0 12.0 0.00 0.00 0.00 85 1017.4
20260507122628 59 307 5.0 14.0 0.00 0.00 0.00 85 1017.3
20260507121628 59 351 5.0 14.0 0.00 0.00 0.00 85 1016.6
20260507120628 59 360 5.0 13.0 0.00 0.00 0.00 85 1016.3
20260507115628 59 355 10.0 13.0 0.00 0.00 0.00 85 1016.2
20260507114628 59 343 6.0 15.0 0.00 0.00 0.00 85 1016.3
20260507112628 59 325 3.0 12.0 0.00 0.00 0.00 85 1016.4
20260507111628 59 348 10.0 13.0 0.00 0.00 0.00 85 1016.2
20260507105628 59 319 9.0 17.0 0.00 0.00 0.00 85 1016.3
20260507104628 59 303 12.0 16.0 0.00 0.00 0.00 85 1016.4
20260507103628 59 307 5.0 16.0 0.00 0.00 0.00 84 1015.2
20260507102628 59 355 4.0 13.0 0.00 0.00 0.00 84 1015.7
20260507101628 59 13 4.0 13.0 0.00 0.00 0.00 84 1016.0
20260507100628 59 344 10.0 10.0 0.00 0.00 0.00 84 1015.7
20260507094628 59 327 6.0 10.0 0.00 0.00 0.00 83 1016.0
20260507093628 59 331 2.0 10.0 0.00 0.00 0.00 83 1015.5
20260507092628 59 346 4.0 8.0 0.00 0.00 0.00 83 1015.7
20260507090628 59 14 4.0 11.0 0.00 0.00 0.00 83 1015.2
20260507084628 59 347 3.0 9.0 0.00 0.00 0.00 83 1015.0
20260507083628 59 22 5.0 9.0 0.00 0.00 0.00 83 1014.8
20260507082628 60 32 5.0 10.0 0.00 0.00 0.00 82 1014.6
20260507081628 60 22 5.0 8.0 0.00 0.00 0.00 82 1014.8
20260507080628 60 12 5.0 10.0 0.00 0.00 0.00 82 1014.6
20260507075628 60 342 6.0 8.0 0.00 0.00 0.00 82 1014.1
20260507074628 60 30 4.0 6.0 0.00 0.00 0.00 82 1014.3
20260507073628 60 13 4.0 11.0 0.00 0.00 0.00 82 1014.1
20260507072628 60 52 6.0 9.0 0.00 0.00 0.00 81 1014.2
20260507071628 60 20 2.0 6.0 0.00 0.00 0.00 81 1014.4
20260507070628 60 22 4.0 10.0 0.00 0.00 0.00 81 1014.3
20260507065627 60 15 8.0 12.0 0.00 0.00 0.00 80 1014.4
20260507064628 61 30 9.0 10.0 0.00 0.00 0.00 80 1013.6
20260507063628 61 38 5.0 10.0 0.00 0.00 0.00 79 1014.2
20260507062628 61 355 9.0 13.0 0.00 0.00 0.00 79 1014.2
20260507060627 61 5 6.0 8.0 0.00 0.00 0.00 79 1014.7
20260507053628 62 37 6.0 9.0 0.00 0.00 0.00 79 1014.0
20260507052628 62 355 6.0 11.0 0.00 0.00 0.00 78 1014.0
20260507051627 62 18 9.0 10.0 0.00 0.00 0.00 78 1014.0
20260507050629 62 20 8.0 13.0 0.00 0.00 0.00 78 1014.2
20260507044628 62 340 10.0 13.0 0.00 0.00 0.01 78 1014.3
20260507043629 62 40 5.0 9.0 0.00 0.00 0.01 79 1014.3
20260507042629 62 331 6.0 12.0 0.00 0.00 0.01 78 1014.2
20260507041628 62 19 4.0 11.0 0.00 0.00 0.01 78 1014.3
20260507040628 62 355 5.0 10.0 0.00 0.00 0.01 78 1014.3
20260507035628 62 5 2.0 11.0 0.00 0.00 0.01 78 1014.1
20260507033629 62 9 5.0 12.0 0.00 0.00 0.01 78 1014.1
20260507032628 62 34 6.0 9.0 0.00 0.00 0.01 79 1014.1
20260507031628 62 40 2.0 12.0 0.00 0.00 0.01 79 1013.7
20260507025628 62 338 5.0 10.0 0.00 0.00 0.01 79 1013.7
20260507024628 62 333 5.0 8.0 0.00 0.00 0.01 79 1014.0
20260507023628 62 355 3.0 9.0 0.00 0.00 0.01 79 1013.6
20260507022628 62 334 6.0 14.0 0.00 0.00 0.01 79 1013.0
20260507021627 62 13 7.0 10.0 0.00 0.00 0.01 79 1013.2
20260507020628 62 319 4.0 10.0 0.00 0.00 0.01 79 1013.3
20260507015629 62 344 2.0 10.0 0.00 0.00 0.01 79 1012.9
20260507014629 62 360 3.0 9.0 0.00 0.00 0.01 79 1012.5
20260507013629 62 318 3.0 8.0 0.00 0.00 0.01 79 1012.3
20260507012628 62 325 2.0 8.0 0.00 0.00 0.01 78 1012.1
20260507011628 63 355 4.0 6.0 0.00 0.00 0.01 78 1012.2
20260507010628 63 350 4.0 8.0 0.00 0.00 0.01 78 1011.9
20260507005628 63 13 5.0 9.0 0.00 0.00 0.01 78 1011.7
20260507004628 63 319 4.0 9.0 0.00 0.00 0.01 78 1011.6
20260507003629 63 315 3.0 8.0 0.00 0.00 0.01 78 1011.4
20260507001628 63 331 1.0 9.0 0.00 0.00 0.01 78 1011.4
20260506235628 63 314 4.0 10.0 0.00 0.00 0.01 78 1011.5
20260506234627 63 323 4.0 11.0 0.00 0.00 0.01 78 1011.3
20260506233627 63 311 3.0 6.0 0.00 0.00 0.01 79 1011.3
20260506232628 63 355 4.0 11.0 0.00 0.00 0.01 78 1011.3
20260506231628 62 9 7.0 11.0 0.00 0.00 0.01 78 1011.1
20260506230628 62 342 4.0 13.0 0.00 0.00 0.01 78 1011.0
20260506225628 62 350 6.0 12.0 0.00 0.00 0.01 79 1011.2
20260506224628 62 336 4.0 13.0 0.00 0.00 0.01 78 1011.1
20260506222628 62 355 6.0 13.0 0.00 0.00 0.01 79 1011.0
20260506221627 62 10 10.0 13.0 0.00 0.00 0.01 78 1011.0
20260506220628 62 306 8.0 13.0 0.00 0.00 0.01 78 1011.1
20260506215628 62 324 5.0 15.0 0.00 0.00 0.01 78 1010.9
20260506214627 63 360 3.0 14.0 0.00 0.00 0.01 78 1010.8
20260506213627 63 323 5.0 13.0 0.00 0.00 0.01 77 1011.0
20260506212628 63 314 5.0 15.0 0.00 0.00 0.01 77 1011.1
20260506211628 63 351 5.0 15.0 0.00 0.00 0.01 76 1011.1
20260506210627 63 355 6.0 16.0 0.00 0.00 0.01 76 1011.1
20260506205628 64 345 11.0 14.0 0.00 0.00 0.01 77 1011.2
20260506204628 63 28 5.0 15.0 0.00 0.00 0.01 77 1011.4
20260506203627 64 299 10.0 16.0 0.00 0.00 0.01 76 1011.3
20260506202628 65 338 5.0 15.0 0.00 0.00 0.01 75 1011.2
20260506201628 66 9 9.0 14.0 0.00 0.00 0.01 76 1011.0
20260506200628 66 355 11.0 18.0 0.00 0.00 0.01 74 1010.9
20260506195627 67 355 13.0 15.0 0.00 0.00 0.01 74 1010.8
20260506194627 68 10 5.0 11.0 0.00 0.00 0.01 76 1010.8
20260506193627 68 307 9.0 12.0 0.00 0.00 0.01 76 1010.7
20260506192627 69 308 8.0 13.0 0.00 0.00 0.01 75 1010.8
20260506191627 68 333 3.0 14.0 0.00 0.00 0.01 75 1010.7
20260506190627 70 342 8.0 14.0 0.00 0.00 0.01 74 1010.9
20260506185627 71 355 5.0 11.0 0.00 0.00 0.01 74 1010.7
20260506184628 71 355 5.0 13.0 0.00 0.00 0.01 75 1010.5
20260506183627 71 348 4.0 11.0 0.00 0.00 0.01 75 1010.6
20260506182628 71 9 7.0 11.0 0.00 0.00 0.01 76 1010.5
20260506180627 70 329 8.0 9.0 0.00 0.00 0.01 78 1010.5
20260506175627 69 17 7.0 9.0 0.00 0.00 0.01 77 1010.2
20260506173628 67 5 5.0 10.0 0.00 0.00 0.01 80 1010.1
20260506172628 66 67 1.0 10.0 0.00 0.00 0.01 81 1010.3
20260506171628 64 47 4.0 10.0 0.00 0.00 0.01 82 1010.3
20260506170627 64 13 3.0 11.0 0.00 0.00 0.01 84 1010.5
20260506164627 62 27 5.0 9.0 0.00 0.00 0.01 86 1010.9
20260506163627 62 14 5.0 14.0 0.00 0.00 0.01 87 1011.1
20260506162627 61 36 5.0 11.0 0.00 0.00 0.01 87 1010.9
20260506161627 61 355 8.0 13.0 0.00 0.00 0.01 87 1011.6
20260506160627 61 355 11.0 19.0 0.00 0.00 0.01 87 1012.2
20260506155627 62 336 5.0 15.0 0.00 0.00 0.01 87 1011.9
20260506154627 62 318 8.0 16.0 0.00 0.00 0.01 86 1012.3
20260506153627 64 324 6.0 20.0 0.00 0.00 0.01 85 1012.0
20260506152627 65 323 8.0 16.0 0.00 0.00 0.00 85 1011.6
20260506151627 65 344 6.0 11.0 0.00 0.00 0.00 85 1010.7
20260506150627 65 5 5.0 16.0 0.00 0.00 0.00 84 1010.7
20260506145627 66 13 9.0 17.0 0.00 0.00 0.00 83 1010.2
20260506144627 68 339 6.0 15.0 0.00 0.00 0.00 82 1009.7
20260506143627 71 351 5.0 16.0 0.00 0.00 0.00 78 1009.6
20260506142627 78 348 4.0 6.0 0.00 0.00 0.00 82 1008.8
20260506141627 78 135 3.0 7.0 0.00 0.00 0.00 82 1008.4
20260506140627 78 106 2.0 6.0 0.00 0.00 0.00 83 1008.5
20260506135627 78 136 2.0 8.0 0.00 0.00 0.00 85 1008.7
20260506133627 77 162 4.0 9.0 0.00 0.00 0.00 85 1008.1
20260506132627 76 114 4.0 8.0 0.00 0.00 0.00 86 1008.0
20260506131627 76 178 4.0 8.0 0.00 0.00 0.00 87 1007.8
20260506130626 76 133 3.0 9.0 0.00 0.00 0.00 87 1007.8
20260506125627 75 171 1.0 5.0 0.00 0.00 0.00 87 1007.8